ONEWEB-0219, 48223

Orbit data source: Space-Track

ONEWEB-0219, 48223 is a payload satellite owned by One Web (NAA) (UK) in LEO that was launched on Sun, 25 Apr 2021 UTC via a SOYUZ-2-1B launch vehicle from the Vostochny Cosmodrome (VOSTO). Payload-class satellites include a variety of spacecraft equipped with specific instruments for various scientific and technological missions. These include communications satellites like Starlink; space stations such as the ISS; scientific satellites like the Hubble; Earth observation satellites from companies like Planet Labs, Umbra, and HawkEye 360; GPS; miniature CubeSats for education and research; and military/defense satellites.

Loading next visibility...
Identifier
48223, 2021-031P
Orbit
LEO
Country
Flag of UKUK
Related business
Manufacturer
One Web
Mission
Operational Commercial Communications
Bus & Motor
ARROW, Unknown motor
Mass
148 kg wet, ~140 kg dry
Launch date (UTC)
2021-04-25 (5 years ago)
Launch vehicle
SOYUZ-2-1B
Launch site
Vostochny Cosmodrome (VOSTO)
Object type
Payload
Rocket body
Debris
Shape & HBR
Trap Box + 2 Pan, 6.7 m
Radar Cross Section
3.464 m², Large (>1 m²)

Expand to show TLE details & history
Last TLE update: 14 hours ago

TLE from 14 hours ago
0 ONEWEB-0219
1 48223U 21031P   26095.07418606 -.00000163  00000-0 -47505-3 0  9996
2 48223  87.8936 304.2921 0001526  79.7475 280.3827 13.14502140238774
Epoch: 2026-04-05T01:46Z
TLE epoch observation values (Epoch: 2026-04-05T01:46:49.675Z)
Latitude
-0°
Longitude
84.20029°
Altitude
1,208.478 km
Speed
7.25 km/s
True Right ascension
20h 17m 10s
True Declination
0° 00' 00"
Sunlit
Object was in daylight at epoch
Visualization orbit readout
Latitude
Unknown
Longitude
Unknown
Altitude
Unknown
Speed
Unknown
Apparent Right ascension
Unknown
Apparent Declination
Unknown
Sunlit
N/A
Visualization observer readout
Local Sidereal Time
21:28:44
Azimuth
Unknown
Elevation
Unknown
Doppler factor
Unknown
Orbital elements
Apogee altitude
1,204.063 km
Perigee altitude
1,201.75 km
Semi-major axis
7,581.044 km
Eccentricity
0.00015
Inclination
87.8936°
RAAN
304.2921°
Arg. of periapsis
79.7475°
True anomaly
280.3655°
Mean anomaly
280.3827°
Eccentric anomaly
280.3741°
Mean motion
3.28814 °/min
Orbital period
109.48 mins
BSTAR
-0.00047505
Loading maneuver chart data...
Computing Atmospheric mass density...
Loading historical data...
Loading historical data...
Loading historical data...
Loading historical data...
Loading historical data...
Loading historical data...
Loading historical data...

Documentation

Showing up to 5 results
|